Regional Weather Roundup
Issued by NWS Charleston, WV

Home | Current Version | Previous Version | Text Only | Print | Product List | Glossary Off
Versions: 1 2 3 4 5 6 7 8 9 10 11 12 13 14 15 16 17 18 19 20 21 22 23 24 25 26 27 28

000
ASUS41 KRLX 201210
RWRRLX
West Virginia Regional Weather Roundup
National Weather Service Charleston WV
800 AM EDT SUN APR 20 2014

Note: "fair" indicates few or no clouds below 12,000 feet with no
significant weather and/or obstructions to visibility.

WVZ003-201300-
Northern Panhandle of West Virginia

CITY           SKY/WX    TMP DP  RH WIND       PRES   REMARKS
WHEELING       SUNNY     43  29  57 NE3       30.34R
$$

WVZ009-201300-
Northwest West Virginia

CITY           SKY/WX    TMP DP  RH WIND       PRES   REMARKS
PARKERSBURG    SUNNY     41  35  79 CALM      30.34R
$$

WVZ006-201300-
Western West Virginia

CITY           SKY/WX    TMP DP  RH WIND       PRES   REMARKS
HUNTINGTON     MOSUNNY   46  38  73 N3        30.27R
$$

WVZ015-201300-
West Central West Virginia

CITY           SKY/WX    TMP DP  RH WIND       PRES   REMARKS
CHARLESTON     MOSUNNY   46  41  82 CALM      30.28R
$$

WVZ031-201300-
North Central West Virginia

CITY           SKY/WX    TMP DP  RH WIND       PRES   REMARKS
CLARKSBURG     MOSUNNY   44  33  65 CALM      30.32R
MORGANTOWN     MOSUNNY   51  23  33 VRB3      30.34R
$$

WVZ035-042-045-201300-
South Central West Virginia

CITY           SKY/WX    TMP DP  RH WIND       PRES   REMARKS
BECKLEY        MOSUNNY   48  33  56 E8        30.29R
BLUEFIELD      MOSUNNY   50  33  52 VRB6      30.30R
LEWISBURG      MOSUNNY   40  31  70 N5        30.31R
$$

WVZ047-201300-
Northern Mountains of West Virginia

CITY           SKY/WX    TMP DP  RH WIND       PRES   REMARKS
ELKINS         MOSUNNY   40  32  73 CALM      30.31R
$$

WVZ052-201300-
Eastern Panhandle of West Virginia

CITY           SKY/WX    TMP DP  RH WIND       PRES   REMARKS
MARTINSBURG    MOSUNNY   48  28  46 N8G17     30.40R
PETERSBURG     SUNNY     40  38  94 CALM      30.40R
$$



USA.gov is the U.S. government's official web portal to all federal, state and local government web resources and services.